Regional Weather Roundup
Issued by NWS

Home | Current Version | Previous Version | Graphics & Text | Print | Product List | Glossary On
Versions: 1 2 3 4 5 6 7 8 9 10 11 12 13 14 15 16 17 18 19 20 21 22 23 24 25 26 27 28 29 30 31 32 33 34 35 36 37 38 39 40 41 42 43 44 45 46 47 48 49 50
000
ASUS43 KMKX 302300
RWRWI

WISCONSIN REGIONAL WEATHER ROUNDUP
NATIONAL WEATHER SERVICE MILWAUKEE/SULLIVAN WI
600 PM CDT SAT AUG 30 2014

NOTE: "FAIR" INDICATES FEW OR NO CLOUDS BELOW 12,000 FEET WITH NO
SIGNIFICANT WEATHER AND/OR OBSTRUCTIONS TO VISIBILITY.

WIZ001-002-006>008-014>016-023>028-310000-
NORTHWEST WISCONSIN

CITY           SKY/WX    TMP DP  RH WIND       PRES   REMARKS
SUPERIOR ARPT  PTSUNNY   64  60  88 NE9       29.87S
ASHLAND        CLOUDY    62  59  90 E6        29.90S
HAYWARD        CLOUDY    64  59  83 N6        29.90R
SIREN          MOSUNNY   71  59  66 E7        29.87F
RICE LAKE      MOSUNNY   67  59  73 CALM      29.89S
LADYSMITH      PTSUNNY   69  60  73 N10       29.88F
EAU CLAIRE     CLOUDY    67  61  81 N9        29.86S
MENOMONIE      CLOUDY    68  61  78 N7        29.87S
NEW RICHMOND   PTSUNNY   69  59  71 E3        29.87F
OSCEOLA        MOSUNNY   72  62  72 CALM      29.89S
$$

WIZ003>005-009-010-017-018-310000-
NORTH CENTRAL WISCONSIN

CITY           SKY/WX    TMP DP  RH WIND       PRES   REMARKS
WOODRUFF       CLOUDY    62  57  85 N8        29.87S
RHINELANDER    CLOUDY    61  58  90 N7        29.86S
EAGLE RIVER    CLOUDY    61  61 100 N8        29.86R
LAND O LAKES   CLOUDY    59  57  94 N10       29.87S
PHILLIPS       PTSUNNY   64  58  82 N8        29.87S
TOMAHAWK       CLOUDY    62  58  88 N5        29.87R
MEDFORD        CLOUDY    63  60  91 NW6       29.87R
MERRILL        CLOUDY    64  61  89 N10       29.85R
$$

WIZ029-030-035-036-043>047-310000-
CENTRAL WISCONSIN

CITY           SKY/WX    TMP DP  RH WIND       PRES   REMARKS
WAUSAU         CLOUDY    68  61  78 NW8       29.83R
MOSINEE        NOT AVBL
MARSHFIELD     CLOUDY    70  63  78 N10       29.85R
STEVENS POINT  MOSUNNY   71  63  74 N9        29.82S
WAUPACA        MOSUNNY   76  69  80 W6        29.80R
WAUTOMA        NOT AVBL
WISC RAPIDS    CLOUDY    74  65  73 NW12      29.84R
CAMP DOUGLAS   NOT AVBL
$$

WIZ011>013-019>022-031-037>040-048>050-310000-
NORTHEAST WISCONSIN

CITY           SKY/WX    TMP DP  RH WIND       PRES   REMARKS
ANTIGO         CLOUDY    64  61  92 NW10      29.84R
STURGEON BAY   PTSUNNY   72  64  78 NW5       29.78R
GREEN BAY      CLOUDY    73  68  84 W8        29.78R
MANITOWOC      NOT AVBL
APPLETON       PTSUNNY   72  63  73 W9        29.80R
CLINTONVILLE   PTSUNNY   72  66  83 NW6       29.80R
OSHKOSH        PTSUNNY   74  67  78 NW8       29.80R
$$

WIZ032>034-041-042-053>061-310000-
SOUTHWEST WISCONSIN

CITY           SKY/WX    TMP DP  RH WIND       PRES   REMARKS
LA CROSSE      MOSUNNY   78  65  63 N9        29.83S HX  80
SPARTA         CLOUDY    74  64  72 NW7       29.85S
VIROQUA        FAIR      75  64  68 W7        29.86R
BOSCOBEL       PTSUNNY   81  66  60 NW6       29.83S HX  83
PRAIRIE DU CHI MOSUNNY   81  63  54 W6        29.83R HX  82
PLATTEVILLE    FAIR      78  69  73 CALM      29.86S HX  80
$$

WIZ056-057-062-063-064-067-068-310000-
SOUTH CENTRAL WISCONSIN

CITY           SKY/WX    TMP DP  RH WIND       PRES   REMARKS
BARABOO/DELLS  SUNNY     79  62  56 W9        29.82S HX  80
LONE ROCK      NOT AVBL
WATERTOWN      SUNNY     78  68  72 W9        29.81S
MADISON        MOSUNNY   80  65  59 CALM      29.82S HX  82
MIDDLETON      FAIR      80  65  58 W10       29.83S HX  82
MONROE         MOSUNNY   79  68  69 SW13G18   29.85R HX  81
JANESVILLE     PTSUNNY   79  64  61 W9        29.83S HX  81
$$

WIZ051-052-058>065-066-070>072-310000-
SOUTHEAST WISCONSIN

CITY           SKY/WX    TMP DP  RH WIND       PRES   REMARKS
MILWAUKEE      PTSUNNY   77  70  79 W9        29.82R
WAUKESHA       MOSUNNY   73  68  83 W9        29.83S
MILWAUKEE/TIMM SUNNY     75  66  73 W14       29.81F
RACINE         SUNNY     79  68  69 W8        29.83S HX  81
BURLINGTON     MOSUNNY   77  66  68 W13       29.83R
KENOSHA        MOSUNNY   78  68  71 W15       29.83R HX  80
FOND DU LAC    CLOUDY    73  66  78 N7        29.81R
SHEBOYGAN      LGT RAIN  70  67  90 W5        29.80R
WEST BEND      PTSUNNY   73  64  73 W8        29.81R
JUNEAU         MOSUNNY   75  66  73 W12       29.83R
$$

LSZ147-162-310000-
LAKE SUPERIOR

STATION/POSITION TIME  TEMP    WIND        PRES    WAVE
                       AIR SEA DIR/SP/G            HT/PER
                 (UTC) (F)     (DEG/KT/KT) (MB)    (FT/S)
W MID LAKE BUOY  2150   59 58  340/  2/  4 1011.7R   1/ 3
DEVILS ISLAND    2200   61      80/  6/  7 1012.2R
PORT WING        2200   66     100/  3/  7 1012.2
SAXON HARBOR     2240   62      50/  5/  8 1012.2R
$$

LMZ867-665-643>646-310000-
LAKE MICHIGAN

STATION/POSITION TIME  TEMP    WIND        PRES    WAVE
                       AIR SEA DIR/SP/G            HT/PER
                 (UTC) (F)     (DEG/KT/KT) (MB)    (FT/S)
N MID LAKE BUOY  2150   67 65  220/ 14/ 16 1005.6F   4/ 6
NORTHPORT PIER   2200   66     320/ 16/ 20 1007.1
KEWAUNEE LAKESHO 2200   78     290/  6/ 12 1006.5R
SHEBOYGAN LAKESH 2200   75 54  240/  9/ 11 1008.1R
ATWATER BUOY     2200   70     260/ 14/ 16 1010.4R
MILWAUKEE LAKESH 2200   77     270/ 13/ 21   N/A
S MID LAKE BUOY  2150   73 69  240/ 12/ 14 1009.4R   2/ 5
KENOSHA   LAKESH 2200   80     260/ 16/ 23 1009.1S
$$

TC  - TEMPERATURE IN CELSIUS
VSB - VISIBILITY IN STATUTE MILES
WCI - WIND CHILL INDEX
HX  - HEAT INDEX




USA.gov is the U.S. government's official web portal to all federal, state and local government web resources and services.